DLH511 SKBO-EDDF

Flight info

Callsign DLH511
Flight time N/A
Altitude 31000
Route OSUSU4R AKROB DCT MAVDA DCT KIKAS UW50 PBL UP533 OPTUB/N0496F330 UP533 CITRS/M083F330 DCT 21N055W/M083F350 24N050W 30N040W 35N030W/M083F370 41N020W DCT PASAS DCT SIVIR DCT RIVAK/N0476F370 DCT AKEMO/N0475F380 DCT GIGOT DCT OBATO UM163 TSU DCT OQQAL DCT RANUX/N0477F390 DCT VALEK DCT LIPNI DCT LIMGO/N0478F350 Z111 TUTOV/N0422F230 Z111 RAMOB IMCOM1A
Aircraft A343/H-SDE2E3FGHIJ4J5M1RWXY/LB1D1

Departure

Time 2026-05-06 06:28
Airport El Dorado International Airport (SKBO)

Arrival

Time N/A
Airport Frankfurt Main Airport (EDDF)
Time Latitude Longitude Altitude Speed Heading
2026-05-06 05:49 4.69986 -74.14118 8371 ft 0 kts 217°
2026-05-06 06:14 4.69987 -74.14118 8369 ft 1 kts 217°
2026-05-06 06:15 4.70006 -74.14104 8370 ft 4 kts 215°
2026-05-06 06:15 4.70028 -74.14091 8370 ft 4 kts 207°
2026-05-06 06:15 4.70050 -74.14079 8370 ft 4 kts 198°
2026-05-06 06:15 4.70070 -74.14079 8370 ft 4 kts 122°
2026-05-06 06:16 4.70079 -74.14103 8370 ft 4 kts 119°
2026-05-06 06:16 4.70085 -74.14112 8370 ft 1 kts 127°
2026-05-06 06:20 4.70082 -74.14108 8370 ft 4 kts 127°
2026-05-06 06:20 4.70052 -74.14065 8370 ft 10 kts 123°
2026-05-06 06:20 4.70069 -74.14020 8370 ft 7 kts 39°
2026-05-06 06:20 4.70116 -74.13986 8370 ft 9 kts 36°
2026-05-06 06:21 4.70127 -74.13939 8370 ft 6 kts 107°
2026-05-06 06:21 4.70111 -74.13909 8370 ft 5 kts 122°
2026-05-06 06:21 4.70072 -74.13858 8369 ft 13 kts 127°
2026-05-06 06:21 4.70013 -74.13779 8370 ft 15 kts 127°
2026-05-06 06:22 4.69951 -74.13698 8370 ft 15 kts 126°
2026-05-06 06:22 4.69884 -74.13608 8370 ft 17 kts 127°
2026-05-06 06:22 4.69810 -74.13511 8370 ft 17 kts 128°
2026-05-06 06:22 4.69746 -74.13429 8370 ft 13 kts 127°
2026-05-06 06:23 4.69682 -74.13342 8370 ft 19 kts 127°
2026-05-06 06:23 4.69594 -74.13226 8370 ft 21 kts 127°
2026-05-06 06:23 4.69513 -74.13120 8369 ft 17 kts 128°
2026-05-06 06:23 4.69449 -74.13034 8370 ft 14 kts 126°
2026-05-06 06:24 4.69399 -74.12968 8370 ft 10 kts 128°
2026-05-06 06:24 4.69362 -74.12920 8370 ft 8 kts 127°
2026-05-06 06:24 4.69326 -74.12872 8369 ft 11 kts 127°
2026-05-06 06:24 4.69266 -74.12793 8370 ft 17 kts 128°
2026-05-06 06:25 4.69189 -74.12695 8370 ft 19 kts 127°
2026-05-06 06:25 4.69139 -74.12577 8369 ft 17 kts 86°
2026-05-06 06:25 4.69272 -74.12492 8371 ft 7 kts 13°
2026-05-06 06:26 4.69284 -74.12499 8371 ft 1 kts 324°
2026-05-06 06:26 4.69313 -74.12532 8371 ft 16 kts 309°
2026-05-06 06:26 4.69482 -74.12743 8369 ft 61 kts 308°
2026-05-06 06:26 4.69820 -74.13202 8370 ft 101 kts 307°
2026-05-06 06:27 4.70319 -74.13862 8369 ft 135 kts 307°
2026-05-06 06:27 4.70949 -74.14694 8369 ft 163 kts 307°
2026-05-06 06:27 4.71668 -74.15631 8614 ft 167 kts 309°
2026-05-06 06:27 4.72407 -74.16553 8847 ft 177 kts 313°
2026-05-06 06:28 4.73446 -74.17239 9078 ft 183 kts 346°
2026-05-06 06:28 4.74686 -74.17109 9403 ft 181 kts 27°
2026-05-06 06:28 4.75856 -74.16545 9611 ft 193 kts 25°
2026-05-06 06:28 4.77157 -74.16116 9842 ft 200 kts 19°
2026-05-06 06:29 4.78512 -74.15713 10054 ft 208 kts 19°
2026-05-06 06:29 4.79915 -74.15271 10294 ft 215 kts 20°
2026-05-06 06:29 4.81357 -74.14794 10561 ft 220 kts 21°
2026-05-06 06:29 4.82814 -74.14288 10837 ft 226 kts 22°
2026-05-06 06:30 4.84308 -74.13748 11089 ft 233 kts 22°
2026-05-06 06:30 4.85869 -74.13245 11276 ft 243 kts 20°
2026-05-06 06:30 4.87485 -74.12604 11351 ft 258 kts 34°
2026-05-06 06:30 4.88915 -74.11464 11561 ft 269 kts 46°
2026-05-06 06:31 4.90280 -74.10120 11797 ft 281 kts 47°
2026-05-06 06:31 4.91696 -74.08706 12035 ft 294 kts 47°
2026-05-06 06:31 4.93174 -74.07233 12126 ft 306 kts 47°
2026-05-06 06:31 4.94714 -74.05703 12437 ft 314 kts 47°
2026-05-06 06:32 4.96271 -74.04163 12945 ft 314 kts 47°
2026-05-06 06:32 4.97834 -74.02615 13399 ft 316 kts 47°
2026-05-06 06:32 4.99418 -74.01042 13695 ft 325 kts 47°
2026-05-06 06:32 5.01115 -73.99487 13921 ft 338 kts 40°
2026-05-06 06:33 5.03222 -73.98340 14120 ft 354 kts 22°
2026-05-06 06:33 5.05630 -73.97652 14337 ft 366 kts 17°
2026-05-06 06:33 5.08137 -73.97043 14529 ft 376 kts 17°
2026-05-06 06:33 5.10713 -73.96421 14728 ft 385 kts 17°
2026-05-06 06:34 5.13346 -73.95777 14893 ft 393 kts 17°
2026-05-06 06:34 5.15975 -73.95130 15171 ft 398 kts 17°
2026-05-06 06:34 5.18676 -73.94462 15505 ft 401 kts 17°
2026-05-06 06:34 5.21370 -73.93661 15863 ft 402 kts 25°
2026-05-06 06:35 5.23772 -73.92265 16265 ft 399 kts 41°
2026-05-06 06:35 5.25641 -73.90224 16586 ft 398 kts 58°
2026-05-06 06:35 5.26804 -73.87721 16966 ft 397 kts 74°
2026-05-06 06:35 5.27523 -73.85044 17338 ft 399 kts 77°
2026-05-06 06:36 5.28183 -73.82330 17707 ft 401 kts 77°
2026-05-06 06:36 5.28847 -73.79604 18113 ft 403 kts 77°
2026-05-06 06:36 5.29522 -73.76861 18487 ft 406 kts 77°
2026-05-06 06:36 5.30205 -73.74102 18808 ft 409 kts 77°
2026-05-06 06:37 5.30895 -73.71324 19085 ft 412 kts 76°
2026-05-06 06:37 5.31592 -73.68525 19485 ft 412 kts 76°
2026-05-06 06:37 5.32291 -73.65725 19768 ft 416 kts 76°
2026-05-06 06:37 5.32988 -73.62930 20037 ft 419 kts 76°
2026-05-06 06:38 5.33700 -73.60074 20329 ft 423 kts 76°
2026-05-06 06:38 5.34414 -73.57210 20636 ft 425 kts 76°
2026-05-06 06:38 5.35134 -73.54324 20951 ft 427 kts 76°
2026-05-06 06:38 5.35856 -73.51427 21243 ft 429 kts 76°
2026-05-06 06:39 5.36582 -73.48514 21538 ft 431 kts 76°
2026-05-06 06:39 5.37318 -73.45579 21822 ft 434 kts 75°
2026-05-06 06:39 5.38283 -73.42706 22132 ft 436 kts 66°
2026-05-06 06:39 5.39687 -73.39996 22414 ft 439 kts 60°
2026-05-06 06:40 5.41281 -73.37372 22707 ft 441 kts 58°
2026-05-06 06:40 5.42967 -73.34784 22993 ft 444 kts 57°
2026-05-06 06:40 5.44693 -73.32200 23274 ft 445 kts 57°
2026-05-06 06:40 5.46425 -73.29608 23529 ft 448 kts 57°
2026-05-06 06:41 5.48160 -73.26985 23745 ft 452 kts 57°
2026-05-06 06:41 5.49868 -73.24379 23982 ft 453 kts 57°
2026-05-06 06:41 5.51595 -73.21725 24217 ft 455 kts 57°
2026-05-06 06:41 5.53325 -73.19053 24442 ft 457 kts 57°
2026-05-06 06:42 5.55058 -73.16370 24660 ft 459 kts 57°
2026-05-06 06:42 5.56797 -73.13675 24916 ft 459 kts 57°
2026-05-06 06:42 5.58535 -73.10981 25117 ft 462 kts 57°
2026-05-06 06:42 5.60285 -73.08268 25369 ft 463 kts 57°
2026-05-06 06:43 5.62042 -73.05545 25566 ft 465 kts 57°
2026-05-06 06:43 5.63805 -73.02815 25815 ft 466 kts 57°
2026-05-06 06:43 5.65584 -73.00080 26012 ft 468 kts 56°
2026-05-06 06:43 5.67589 -72.97499 26253 ft 470 kts 48°
2026-05-06 06:44 5.69929 -72.95244 26467 ft 472 kts 40°
2026-05-06 06:44 5.72488 -72.93163 26653 ft 474 kts 38°
2026-05-06 06:44 5.75124 -72.91146 26908 ft 475 kts 37°
2026-05-06 06:44 5.77798 -72.89160 27067 ft 478 kts 37°
2026-05-06 06:45 5.80481 -72.87190 27325 ft 478 kts 36°
2026-05-06 06:45 5.83181 -72.85208 27478 ft 482 kts 36°
2026-05-06 06:45 5.85856 -72.83237 27611 ft 485 kts 36°
2026-05-06 06:45 5.88579 -72.81221 27836 ft 486 kts 37°
2026-05-06 06:46 5.91306 -72.79194 28045 ft 488 kts 37°
2026-05-06 06:46 5.94030 -72.77164 28265 ft 489 kts 37°
2026-05-06 06:46 5.96769 -72.75121 28456 ft 490 kts 37°
2026-05-06 06:46 5.99512 -72.73074 28652 ft 492 kts 37°
2026-05-06 06:47 6.02263 -72.71022 28850 ft 493 kts 37°
2026-05-06 06:47 6.05027 -72.68959 29067 ft 494 kts 37°
2026-05-06 06:47 6.07783 -72.66901 29393 ft 493 kts 37°
2026-05-06 06:47 6.10537 -72.64846 29666 ft 493 kts 37°
2026-05-06 06:48 6.13258 -72.62815 29927 ft 493 kts 37°
2026-05-06 06:48 6.16012 -72.60760 30207 ft 492 kts 37°
2026-05-06 06:48 6.18759 -72.58709 30414 ft 492 kts 36°
2026-05-06 06:48 6.21511 -72.56653 30632 ft 492 kts 36°
2026-05-06 06:49 6.24264 -72.54598 30812 ft 492 kts 36°
2026-05-06 06:49 6.27006 -72.52550 31022 ft 492 kts 36°
2026-05-06 06:49 6.29760 -72.50493 31149 ft 493 kts 36°